Location: ???????????
(54.6970°N, 39.1477°E)
Time: 07:42:54
(UTC+00:00)

Cosmos 2082 Rocket - Pass Details

Date: 19 May 2025
Orbit: 832 x 853 km, 71.0° (Epoch: 15 June)

Event Time Altitude Azimuth Distance (km) Brightness Sun altitude
Exits shadow 20:00:14 12° 198° (SSW) 2,309 4.0 -13.4°
Maximum altitude 20:05:26 67° 117° (ESE) 905 2.2 -13.7°
Drops below altitude 10° 20:11:01 10° 37° (NE) 2,461 5.1 -13.9°
Sets 20:13:29 0° 35° (NE) 3,402 6.0 -14.0°
